Melfa, VA

3:57 AM EST on February 13, 2016 (GMT -0500)
Accomack County

Weather History for KMFV - January, 2013

Change the Weather History Date:

Sunday, January 13, 2013

  Actual Average (KWAL) Record (KWAL)
Temperature  
Mean Temperature 49 °F 36 °F  
Max Temperature 59 °F 45 °F 67 °F (2007)
Min Temperature 41 °F 28 °F 6 °F (1981)
Degree Days  
Heating Degree Days 16    
Month to date heating degree days  
Since 1 July heating degree days  
Cooling Degree Days 0    
Month to date cooling degree days  
Year to date cooling degree days  
Moisture  
Dew Point 49 °F    
Average Humidity 94    
Maximum Humidity 100    
Minimum Humidity 87    
Precipitation  
Precipitation 0.00 in 0.10 in 0.45 in (2002)
Month to date precipitation 1.28  
Year to date precipitation 1.28  
Sea Level Pressure  
Sea Level Pressure 30.11 in    
Wind  
Wind Speed 5 mph (SSE)    
Max Wind Speed 12 mph    
Max Gust Speed 16 mph    
Visibility 2 miles    
Events Fog    
T = Trace of Precipitation, MM = Missing Value Source: NWS Daily Summary

Daily Weather History Graph

Daily Weather History Graph

Search for Another Location

Airport or City:

Trip Planner

Search our weather history database for the weather conditions in past years. The results will help you decide how hot, cold, wet, or windy it might be!

Date:

Astronomy

Jan. 13, 2013 Rise Set
Actual Time 7:17 AM EST 5:06 PM EST
Civil Twilight 6:48 AM EST 5:35 PM EST
Nautical Twilight 6:16 AM EST 6:07 PM EST
Astronomical Twilight 5:44 AM EST 6:39 PM EST
Moon 8:17 AM EST 7:38 PM EST
Length of Visible Light 10h 46m
Length of Day
9h 49m
Waxing Crescent, 5% of the Moon is Illuminated
Jan 13
Waxing Crescent
Jan 18
First Quarter
Jan 26
Full
Feb 3
Last Quarter
Feb 10
New

Hourly Weather History & Observations

Time (EST) Temp. Windchill Dew Point Humidity Pressure Visibility Wind Dir Wind Speed Gust Speed Precip Events Conditions
12:15 AM 41.0 °F - 39.2 °F 93% 30.15 in 0.5 mi Calm Calm - N/A Fog Fog
12:35 AM 41.0 °F - 39.2 °F 93% 30.15 in 0.2 mi Calm Calm - N/A Fog Fog
1:16 AM 42.8 °F - 39.2 °F 87% 30.15 in 0.2 mi Calm Calm - N/A Fog Fog
1:35 AM 42.8 °F - 39.2 °F 87% 30.15 in 0.2 mi Calm Calm - N/A Fog Fog
1:57 AM 42.8 °F - 41.0 °F 93% 30.15 in 0.2 mi Calm Calm - N/A Fog Fog
2:15 AM 42.8 °F - 41.0 °F 93% 30.16 in 0.2 mi Calm Calm - N/A Fog Fog
2:35 AM 42.8 °F - 41.0 °F 93% 30.16 in 0.2 mi Calm Calm - N/A Fog Fog
2:55 AM 42.8 °F 41.1 °F 42.8 °F 100% 30.16 in 0.2 mi East 3.5 mph - N/A Fog Fog
3:15 AM 42.8 °F 41.1 °F 42.8 °F 100% 30.16 in 0.2 mi SE 3.5 mph - N/A Fog Fog
3:35 AM 42.8 °F - 42.8 °F 100% 30.15 in 0.2 mi Calm Calm - N/A Fog Fog
4:15 AM 42.8 °F 41.1 °F 42.8 °F 100% 30.14 in 0.2 mi SE 3.5 mph - N/A Fog Fog
4:55 AM 44.6 °F 42.2 °F 42.8 °F 93% 30.13 in 0.5 mi SE 4.6 mph - N/A Fog Fog
5:15 AM 44.6 °F 42.2 °F 42.8 °F 93% 30.12 in 0.2 mi SE 4.6 mph - N/A Fog Fog
5:35 AM 44.6 °F 43.1 °F 42.8 °F 93% 30.13 in 0.5 mi SE 3.5 mph - N/A Fog Fog
5:55 AM 44.6 °F 40.7 °F 42.8 °F 93% 30.13 in 0.5 mi SSE 6.9 mph - N/A Fog Fog
6:15 AM 44.6 °F 41.4 °F 42.8 °F 93% 30.13 in 0.5 mi SSE 5.8 mph - N/A Fog Fog
6:35 AM 44.6 °F 42.2 °F 44.6 °F 100% 30.13 in - SSE 4.6 mph - N/A Fog Fog
6:57 AM 46.4 °F 43.5 °F 44.6 °F 93% 30.13 in 0.5 mi SSE 5.8 mph - N/A Fog Fog
7:15 AM 46.4 °F 41.9 °F 44.6 °F 93% 30.13 in 0.5 mi SSE 9.2 mph - N/A Fog Fog
7:35 AM 46.4 °F 42.9 °F 44.6 °F 93% 30.14 in 0.5 mi SSE 6.9 mph - N/A Fog Fog
7:55 AM 46.4 °F 44.3 °F 44.6 °F 93% 30.15 in 0.2 mi South 4.6 mph - N/A Fog Fog
8:15 AM 46.4 °F 42.9 °F 46.4 °F 100% 30.15 in 0.5 mi SSE 6.9 mph - N/A Fog Fog
8:35 AM 48.2 °F - 46.4 °F 93% 30.15 in 0.5 mi SSE 5.8 mph - N/A Fog Fog
8:55 AM 48.2 °F - 46.4 °F 93% 30.16 in 0.8 mi SSE 6.9 mph - N/A   Overcast
9:15 AM 48.2 °F - 46.4 °F 93% 30.16 in 0.8 mi SSE 5.8 mph - N/A   Overcast
9:35 AM 48.2 °F - 46.4 °F 93% 30.16 in 1.0 mi SSE 10.4 mph - N/A   Overcast
9:55 AM 48.2 °F - 48.2 °F 100% 30.16 in 0.5 mi SSE 9.2 mph - N/A Fog Fog
10:15 AM 50.0 °F - 48.2 °F 94% 30.16 in 1.0 mi South 8.1 mph - N/A   Overcast
10:35 AM 51.8 °F - 48.2 °F 88% 30.16 in 1.0 mi SSE 9.2 mph - N/A   Overcast
10:55 AM 51.8 °F - 50.0 °F 94% 30.16 in 2.0 mi South 6.9 mph - N/A   Overcast
11:15 AM 51.8 °F - 50.0 °F 94% 30.15 in 3.0 mi South 8.1 mph - N/A   Overcast
11:35 AM 51.8 °F - 50.0 °F 94% 30.14 in 7.0 mi South 11.5 mph - N/A   Overcast
11:55 AM 51.8 °F - 51.8 °F 100% 30.12 in 5.0 mi SSE 6.9 mph - N/A   Overcast
12:15 PM 53.6 °F - 51.8 °F 94% 30.12 in 4.0 mi South 6.9 mph 16.1 mph N/A   Overcast
12:55 PM 53.6 °F - 51.8 °F 94% 30.11 in 2.0 mi South 6.9 mph - N/A   Overcast
1:15 PM 53.6 °F - 51.8 °F 94% 30.10 in 2.5 mi South 11.5 mph - N/A   Overcast
1:35 PM 55.4 °F - 53.6 °F 94% 30.10 in 7.0 mi South 9.2 mph - N/A   Overcast
1:55 PM 55.4 °F - 53.6 °F 94% 30.09 in 2.0 mi South 8.1 mph 16.1 mph N/A   Overcast
2:15 PM 55.4 °F - 53.6 °F 94% 30.09 in 2.5 mi South 9.2 mph - N/A   Overcast
2:35 PM 55.4 °F - 51.8 °F 88% 30.08 in 1.2 mi South 10.4 mph - N/A   Overcast
2:55 PM 55.4 °F - 53.6 °F 94% 30.09 in 2.5 mi South 9.2 mph 16.1 mph N/A   Overcast
3:15 PM 55.4 °F - 51.8 °F 88% 30.09 in 4.0 mi South 5.8 mph - N/A   Overcast
3:36 PM 55.4 °F - 51.8 °F 88% 30.09 in 5.0 mi South 9.2 mph - N/A   Overcast
3:56 PM 55.4 °F - 53.6 °F 94% 30.09 in 4.0 mi South 6.9 mph - N/A   Overcast
4:15 PM 55.4 °F - 53.6 °F 94% 30.09 in 4.0 mi South 6.9 mph - N/A   Overcast
4:55 PM 55.4 °F - 53.6 °F 94% 30.09 in 0.5 mi South 8.1 mph - N/A Fog Fog
5:15 PM 53.6 °F - 51.8 °F 94% 30.09 in 0.8 mi South 6.9 mph - N/A   Overcast
5:35 PM 55.4 °F - 53.6 °F 94% 30.09 in 0.8 mi South 6.9 mph - N/A   Overcast
5:55 PM 55.4 °F - 53.6 °F 94% 30.08 in 1.0 mi South 6.9 mph - N/A   Overcast
6:15 PM 55.4 °F - 53.6 °F 94% 30.08 in 1.0 mi South 8.1 mph - N/A   Overcast
6:35 PM 55.4 °F - 53.6 °F 94% 30.08 in 0.8 mi South 9.2 mph - N/A   Overcast
6:55 PM 55.4 °F - 53.6 °F 94% 30.07 in 0.8 mi South 6.9 mph - N/A   Overcast
7:35 PM 55.4 °F - 53.6 °F 94% 30.06 in 2.5 mi South 9.2 mph - N/A   Overcast
7:55 PM 55.4 °F - 53.6 °F 94% 30.06 in 7.0 mi South 8.1 mph - N/A   Scattered Clouds
8:15 PM 55.4 °F - 55.4 °F 100% 30.05 in 7.0 mi South 9.2 mph - N/A   Clear
8:35 PM 55.4 °F - 53.6 °F 94% 30.05 in 7.0 mi South 8.1 mph - N/A   Clear
8:55 PM 55.4 °F - 53.6 °F 94% 30.06 in 7.0 mi SSW 5.8 mph - N/A   Clear
9:15 PM 55.4 °F - 53.6 °F 94% 30.05 in 5.0 mi South 6.9 mph - N/A   Clear
9:35 PM 55.4 °F - 53.6 °F 94% 30.05 in 5.0 mi SSW 6.9 mph - N/A   Clear
9:55 PM 55.4 °F - 53.6 °F 94% 30.05 in 5.0 mi South 8.1 mph - N/A   Clear
10:15 PM 57.2 °F - 55.4 °F 94% 30.05 in 4.0 mi South 8.1 mph - N/A   Clear
10:35 PM 57.2 °F - 55.4 °F 94% 30.06 in 5.0 mi South 8.1 mph - N/A   Clear
10:55 PM 57.2 °F - 55.4 °F 94% 30.05 in 5.0 mi South 6.9 mph - N/A   Clear
11:15 PM 57.2 °F - 55.4 °F 94% 30.06 in 7.0 mi South 6.9 mph - N/A   Clear
11:35 PM 57.2 °F - 55.4 °F 94% 30.06 in 7.0 mi South 5.8 mph - N/A   Clear
11:55 PM 59.0 °F - 57.2 °F 94% 30.06 in 7.0 mi South 6.9 mph - N/A   Clear